This is the latest recevied weather packets stored in our database for station/object DL9GRB-13. If no packets are shown the sender has not sent any weather packets the latest 10 day(s).
| Time | Temp. | Humidity | Pressure | Rain* | Wind** | Luminosity | Snow |
|---|---|---|---|---|---|---|---|
| 1778258049 | 14.44° C | 46% | 1019.7 hPa | 0 mm | - | 140 W/m² | - |
| 1778257869 | 14.44° C | 47% | 1019.9 hPa | 0 mm | - | 133 W/m² | - |
| 1778257689 | 14.44° C | 48% | 1019.9 hPa | 0 mm | - | 104 W/m² | - |
| 1778257509 | 14.44° C | 47% | 1019.8 hPa | 0 mm | - | 124 W/m² | - |
| 1778257329 | 14.44° C | 47% | 1020.1 hPa | 0 mm | - | 62 W/m² | - |
| 1778257149 | 15° C | 46% | 1019.9 hPa | 0 mm | - | 75 W/m² | - |
| 1778256969 | 15° C | 45% | 1019.9 hPa | 0 mm | - | 75 W/m² | - |
| 1778256789 | 15° C | 44% | 1019.9 hPa | 0 mm | - | 170 W/m² | - |
| 1778256609 | 15.56° C | 44% | 1019.9 hPa | 0 mm | - | 197 W/m² | - |
| 1778256429 | 15° C | 45% | 1019.8 hPa | 0 mm | - | 176 W/m² | - |
| 1778256249 | 15° C | 44% | 1019.7 hPa | 0 mm | - | 195 W/m² | - |
| 1778256069 | 15.56° C | 44% | 1019.9 hPa | 0 mm | - | 122 W/m² | - |
| 1778255889 | 15° C | 44% | 1019.9 hPa | 0 mm | - | 195 W/m² | - |
| 1778255709 | 15° C | 45% | 1019.9 hPa | 0 mm | - | 182 W/m² | - |
| 1778255529 | 15° C | 44% | 1019.7 hPa | 0 mm | - | 176 W/m² | - |
| 1778255349 | 15° C | 44% | 1019.8 hPa | 0 mm | - | 75 W/m² | - |
| 1778255169 | 15.56° C | 43% | 1019.8 hPa | 0 mm | - | 86 W/m² | - |
| 1778254989 | 15.56° C | 44% | 1019.8 hPa | 0 mm | - | 206 W/m² | - |
| 1778254809 | 15.56° C | 43% | 1019.7 hPa | 0 mm | - | 262 W/m² | - |
| 1778254629 | 15.56° C | 42% | 1019.7 hPa | 0 mm | - | 294 W/m² | - |
| 1778254449 | 15.56° C | 42% | 1019.7 hPa | 0 mm | - | 318 W/m² | - |
| 1778254269 | 15.56° C | 42% | 1019.5 hPa | 0 mm | - | 331 W/m² | - |
| 1778254089 | 15.56° C | 42% | 1019.8 hPa | 0 mm | - | 327 W/m² | - |
| 1778253909 | 15.56° C | 42% | 1019.8 hPa | 0 mm | - | 341 W/m² | - |
| 1778253729 | 15.56° C | 43% | 1019.7 hPa | 0 mm | - | 352 W/m² | - |
* Rain latest hour (hover to see other rain measurements)
** Current wind speed in m/s (hover to see current wind gust speed)